Powrót do katalogu

FLOCK 4G 8

AktywnyNaukaSSO
NORAD 62613·PAYLOAD·🇺🇸 United States

Wystrzelony Jan 14, 2025 z Vandenberg Space Force Base

Loading…

Następne Przeloty (najbliższe 24 godziny)

TLE

ŚwieżeSource: CelesTrak SupGP

Epoka: Sep 14, 2026, 16:45 UTC

1 62613C 25009E   26257.69799769  .00004969  00000+0  16457-3 0  2578
2 62613  97.3955 339.3985 0003788  18.3494 221.8409 15.31351289    18

Śledź FLOCK 4G 8 w czasie rzeczywistym z AllMySat

Download on the App Store